FW9626 Weather Reports


time (UTC)temp
F
wind
direction
speed
knots
gust
knots
rain 1hr
in
rain 24hr
in
rain mn
in
humidity
%
barometer
mb
20260507084555 52 317 0.9 3.5 0.00 0.00 0.00 42 1018.4
20260507083047 52 9 0.9 5.2 0.00 0.00 0.00 43 1018.3
20260507081553 52 296 0.9 3.5 0.00 0.00 0.00 42 1018.4
20260507080045 52 322 0.0 2.6 0.00 0.00 0.00 41 1018.5
20260507074555 53 0 0.0 0.9 0.00 0.00 0.00 40 1018.5
20260507073042 53 0 0.0 0.9 0.00 0.00 0.00 39 1018.6
20260507071545 54 287 0.0 1.7 0.00 0.00 0.00 39 1018.5
20260507070046 55 0 0.0 0.9 0.00 0.00 0.00 37 1018.6
20260507064548 56 0 0.0 2.6 0.00 0.00 0.00 35 1018.4
20260507063045 58 0 0.0 5.2 0.00 0.00 0.00 35 1018.3
20260507061545 59 0 0.0 1.7 0.00 0.00 0.00 34 1018.3
20260507060057 59 0 0.0 1.7 0.00 0.00 0.00 34 1018.1
20260507054545 60 0 0.0 0.9 0.00 0.00 0.00 33 1018.0
20260507053046 61 0 0.0 3.5 0.00 0.00 0.00 33 1018.0
20260507051547 61 181 0.0 3.5 0.00 0.00 0.00 33 1017.9
20260507050045 61 158 0.9 7.0 0.00 0.00 0.00 33 1017.8
20260507044601 61 195 0.9 5.2 0.00 0.00 0.00 33 1017.7
20260507043100 61 0 0.0 3.5 0.00 0.00 0.00 32 1017.6
20260507041549 62 0 0.0 4.3 0.00 0.00 0.00 31 1017.4
20260507040046 62 0 0.0 2.6 0.00 0.00 0.00 31 1017.2
20260507034546 63 163 0.0 4.3 0.00 0.00 0.00 30 1017.0
20260507033048 64 0 0.0 0.9 0.00 0.00 0.00 29 1016.7
20260507031549 65 0 0.0 0.9 0.00 0.00 0.00 28 1016.5
20260507030049 66 186 0.9 3.5 0.00 0.00 0.00 28 1016.3
20260507024554 67 0 0.0 4.3 0.00 0.00 0.00 27 1016.0
20260507023104 68 188 2.6 8.7 0.00 0.00 0.00 26 1015.9
20260507021551 68 214 2.6 8.7 0.00 0.00 0.00 25 1015.7
20260507020059 70 187 4.3 10.4 0.00 0.00 0.00 25 1015.6
20260507014547 71 181 4.3 10.4 0.00 0.00 0.00 24 1015.4
20260507013047 71 266 4.3 8.7 0.00 0.00 0.00 24 1015.3
20260507011547 72 173 4.3 13.0 0.00 0.00 0.00 24 1015.1
20260507010047 72 171 3.5 12.2 0.00 0.00 0.00 23 1015.2
20260507004544 72 169 4.3 13.0 0.00 0.00 0.00 23 1015.2
20260507003047 74 158 5.2 13.0 0.00 0.00 0.00 22 1015.1
20260507001609 75 209 5.2 12.2 0.00 0.00 0.00 22 1014.9
20260507000048 75 166 5.2 12.2 0.00 0.00 0.00 22 1014.9
20260506234551 76 184 4.3 12.2 0.00 0.00 0.00 21 1014.8
20260506233045 76 175 4.3 12.2 0.00 0.00 0.00 21 1014.9
20260506231544 77 134 3.5 9.6 0.00 0.00 0.00 20 1014.9
20260506230054 77 189 5.2 12.2 0.00 0.00 0.00 20 1015.1
20260506224543 78 250 4.3 9.6 0.00 0.00 0.00 19 1015.1
20260506223045 77 174 3.5 7.8 0.00 0.00 0.00 20 1015.1
20260506221603 78 163 5.2 10.4 0.00 0.00 0.00 19 1015.4
20260506220046 78 157 2.6 10.4 0.00 0.00 0.00 20 1015.6
20260506214544 77 216 3.5 10.4 0.00 0.00 0.00 19 1015.8
20260506213049 78 178 4.3 13.0 0.00 0.00 0.00 19 1016.0
20260506211600 79 34 3.5 7.8 0.00 0.00 0.00 18 1016.1
20260506210054 77 131 3.5 7.8 0.00 0.00 0.00 19 1016.1
20260506204547 78 159 2.6 9.6 0.00 0.00 0.00 19 1016.3
20260506203045 78 135 5.2 13.0 0.00 0.00 0.00 19 1016.4
20260506201545 78 161 2.6 7.0 0.00 0.00 0.00 19 1016.4
20260506200042 77 182 1.7 9.6 0.00 0.00 0.00 20 1016.6
20260506194544 74 84 2.6 8.7 0.00 0.00 0.00 21 1016.7
20260506193045 74 134 2.6 12.2 0.00 0.00 0.00 21 1017.0
20260506191541 75 186 2.6 8.7 0.00 0.00 0.00 21 1016.9
20260506190049 73 88 4.3 12.2 0.00 0.00 0.00 22 1017.1
20260506184549 72 186 1.7 7.8 0.00 0.00 0.00 23 1017.3
20260506183044 72 179 1.7 7.0 0.00 0.00 0.00 23 1017.5
20260506181553 72 220 2.6 8.7 0.00 0.00 0.00 23 1017.6
20260506180050 70 172 0.9 8.7 0.00 0.00 0.00 24 1017.7
20260506174546 69 132 2.6 7.0 0.00 0.00 0.00 24 1017.7
20260506173058 68 160 2.6 7.8 0.00 0.00 0.00 25 1017.8
20260506171550 69 336 3.5 8.7 0.00 0.00 0.00 24 1017.8
20260506170052 68 231 1.7 6.1 0.00 0.00 0.00 25 1017.8
20260506164558 68 192 1.7 4.3 0.00 0.00 0.00 26 1017.7
20260506163101 66 55 1.7 5.2 0.00 0.00 0.00 27 1017.6
20260506161550 64 176 0.9 5.2 0.00 0.00 0.00 29 1017.7
20260506160056 63 168 1.7 3.5 0.00 0.00 0.00 29 1017.6
20260506154549 62 0 1.7 7.0 0.00 0.00 0.00 31 1017.6
20260506153048 60 88 0.0 3.5 0.00 0.00 0.00 34 1017.6
20260506151541 58 24 1.7 7.0 0.00 0.00 0.00 36 1017.6
20260506150101 57 31 2.6 4.3 0.00 0.00 0.00 37 1017.6
20260506144543 56 61 0.9 3.5 0.00 0.00 0.00 38 1017.6
20260506143045 54 59 0.9 3.5 0.00 0.00 0.00 41 1017.5
20260506141546 51 0 0.0 3.5 0.00 0.00 0.00 45 1017.5
20260506140049 49 314 0.9 3.5 0.00 0.00 0.00 48 1017.5
20260506134545 46 0 0.0 4.3 0.00 0.00 0.00 51 1017.4
20260506133059 45 317 0.9 7.0 0.00 0.00 0.00 53 1017.3
20260506131545 43 315 0.9 5.2 0.00 0.00 0.00 55 1017.1
20260506130048 42 331 0.9 3.5 0.00 0.00 0.00 57 1016.5
20260506124544 42 327 1.7 6.1 0.00 0.00 0.00 57 1016.4
20260506123049 41 0 0.9 4.3 0.00 0.00 0.00 57 1016.3
20260506121553 42 0 0.9 4.3 0.00 0.00 0.00 57 1016.2
20260506120058 42 288 0.9 6.1 0.00 0.00 0.00 57 1016.2
20260506114547 41 315 0.0 3.5 0.00 0.00 0.00 57 1016.0
20260506113045 41 0 0.0 1.7 0.00 0.00 0.00 57 1015.9
20260506111548 42 0 0.0 2.6 0.00 0.00 0.00 57 1015.8
20260506110100 42 0 0.0 1.7 0.00 0.00 0.00 55 1016.0
20260506104557 42 0 0.0 2.6 0.00 0.00 0.00 55 1015.9
20260506103047 43 335 0.0 2.6 0.00 0.00 0.00 54 1015.8
20260506101549 43 0 0.9 7.0 0.00 0.00 0.00 53 1015.7
20260506100056 43 0 0.0 2.6 0.00 0.00 0.00 54 1015.7
20260506094550 43 0 0.0 2.6 0.00 0.00 0.00 54 1015.7
20260506093047 43 308 0.0 1.7 0.00 0.00 0.00 54 1015.7
20260506091545 43 0 0.0 1.7 0.00 0.00 0.00 54 1015.5
20260506090043 43 0 0.0 1.7 0.00 0.00 0.00 53 1015.5